Wind_Speed
11 9 10 7 11 11 10 9 8 5 5 4 7 6 7 5 3 7 14 12 10 13 12 13 14 14 13 13 13 13 14 14 13 13 14 13 13 13 13 14 15 16 16 16
12 11 9 10 9 11 9 10 10 6 7 5 6 8 8 9 5 4 9 14 15 18 16 14 14 15 15 14 14 15 15 14 14 13 13 13 12 13 14 15 15 16 17 17
15 8 7 9 8 10 11 10 6 6 6 12 11 12 10 10 12 10 12 16 20 20 18 17 16 14 15 15 15 15 15 14 15 15 16 16 16 15 15 13 14 15 17 17
15 16 13 11 11 11 12 11 6 5 8 12 8 8 6 7 11 15 17 17 17 17 17 17 17 17 17 16 16 17 17 17 16 17 16 15 14 12 12 14 16 18 19 20
15 11 12 14 13 11 10 9 9 8 10 11 10 10 6 4 8 10 15 20 21 19 17 15 18 18 16 16 16 16 17 17 17 17 18 18 17 16 18 18 20 22 24 26
16 14 10 8 8 15 11 7 7 8 9 12 14 12 8 9 8 9 11 13 21 24 22 23 20 19 20 20 19 17 18 18 20 20 18 19 19 19 19 20 24 25 26 27
21 19 13 12 5 10 10 11 11 9 8 9 8 9 15 7 10 11 13 16 16 21 29 24 27 25 23 21 20 21 20 17 17 18 19 18 22 23 22 24 25 27 28 29
24 18 20 15 13 11 15 15 10 6 5 6 6 7 5 6 10 11 11 14 17 18 25 32 26 28 28 24 23 23 22 20 19 17 17 20 21 23 24 26 28 29 29 29
24 21 11 16 15 13 12 13 14 7 5 3 8 8 11 3 6 8 9 11 14 15 19 26 34 36 32 30 26 21 19 19 21 20 20 27 27 25 27 29 29 29 27 27
12 16 14 15 17 17 11 13 9 10 5 7 6 8 5 2 1 3 3 4 10 11 15 19 25 29 31 32 31 28 22 20 22 25 26 27 27 27 28 30 29 28 27 29
19 14 10 14 16 17 15 10 10 5 5 4 4 5 7 4 4 6 6 7 4 3 8 15 19 21 25 28 29 28 29 29 26 25 26 26 25 26 26 26 27 30 32 37
30 16 17 16 14 17 14 14 16 13 8 9 12 18 13 14 11 5 4 7 4 4 3 5 11 17 21 20 24 26 26 25 25 24 20 19 21 22 24 26 28 31 32 32
32 20 18 16 17 20 17 17 16 16 16 16 9 6 7 8 6 11 11 8 9 8 5 6 8 12 13 12 13 14 15 16 16 17 20 24 25 27 28 30 30 31 36 26
31 25 26 23 21 18 17 20 21 21 16 16 18 14 13 14 14 12 13 16 16 14 11 13 14 14 13 14 14 16 17 17 20 23 25 26 28 30 32 33 33 31 33 32
33 28 28 27 22 21 20 17 19 21 20 19 19 20 19 16 16 14 16 15 18 19 17 17 22 19 18 18 18 20 21 20 23 25 27 29 31 33 34 33 33 33 34 34
30 21 19 20 20 23 26 24 24 24 22 22 22 25 18 16 18 19 18 17 18 20 20 17 23 24 23 23 23 23 25 27 27 27 28 29 29 30 31 32 34 35 37 37
27 27 20 22 20 17 17 28 23 22 23 23 24 25 20 21 25 23 22 21 20 19 18 20 21 26 27 26 24 21 21 22 24 27 29 30 30 30 32 34 35 36 34 33
13 24 19 17 14 8 20 15 20 24 23 21 26 27 27 26 26 27 26 26 25 25 21 22 24 23 20 19 19 20 22 25 26 27 27 27 27 29 31 32 34 35 35 32
19 19 12 11 16 17 16 22 21 22 25 19 26 27 25 27 25 27 26 25 26 25 24 22 20 18 17 17 20 22 24 24 23 23 24 26 27 27 28 30 29 27 26 27
23 26 19 15 10 8 18 20 17 18 34 19 16 16 22 25 27 24 24 24 25 25 23 21 19 18 18 19 21 22 21 20 21 23 24 24 25 25 25 22 22 22 21 22
25 28 27 25 12 14 17 18 16 15 30 17 19 19 18 20 19 21 16 23 25 26 23 20 19 18 19 19 19 19 19 21 22 24 24 24 25 23 20 19 19 20 22 23
17 19 21 21 16 16 22 22 24 26 20 20 21 20 17 19 18 18 18 21 26 25 22 20 19 19 18 18 18 20 21 22 24 25 25 24 21 20 19 20 21 22 24 26
25 19 14 21 21 28 22 19 22 21 22 24 23 21 18 20 19 20 21 25 26 24 21 20 19 18 19 19 20 21 23 24 25 25 23 20 20 19 20 21 23 25 27 29
34 36 36 28 28 29 27 27 28 28 27 27 25 22 20 19 21 22 24 26 25 23 22 21 21 21 21 21 23 24 26 27 27 24 22 21 20 20 21 23 25 27 29 31
30 31 37 40 34 29 31 29 29 26 23 25 25 23 20 22 22 25 27 27 26 25 24 24 23 24 24 25 26 27 27 27 24 21 20 20 20 21 23 24 26 28 31 34
32 33 34 41 35 35 34 31 26 25 24 25 24 24 24 25 25 28 29 29 29 28 27 26 26 26 27 28 28 27 27 24 22 21 21 21 21 22 24 26 30 29 32 35
Wind_Direction
222 220 236 244 233 229 225 223 233 198 182 210 245 267 268 282 234 199 188 196 182 182 178 161 156 149 153 155 155 153 155 155 160 166 171 178 186 191 196 204 211 220 226 234
210 225 251 233 249 202 210 218 211 218 213 242 276 277 258 269 181 186 191 185 180 189 190 182 173 166 165 166 170 172 171 172 173 177 180 186 196 206 212 217 224 228 231 238
216 236 249 216 212 202 208 232 210 224 229 249 273 267 247 256 188 190 190 191 191 198 195 192 191 184 182 179 181 182 187 185 187 188 194 200 208 214 224 232 242 248 240 241
229 233 237 218 211 207 210 223 231 237 246 250 231 274 205 224 218 207 201 205 204 203 205 205 199 198 203 200 201 200 202 205 207 210 214 218 227 232 239 242 243 247 254 259
216 204 210 211 215 212 219 236 227 243 260 260 238 255 220 218 237 232 226 222 214 211 214 217 214 211 209 212 216 218 220 224 226 231 232 229 232 238 246 254 262 263 263 266
216 197 191 214 244 221 222 227 242 260 256 247 238 241 233 228 231 233 238 242 228 224 221 213 214 216 211 213 210 212 221 227 234 237 243 244 243 250 258 261 262 265 265 263
214 221 229 234 218 201 206 212 230 220 220 241 192 227 252 251 255 260 245 239 241 229 227 221 228 224 220 219 222 226 230 236 239 244 245 244 242 250 257 263 263 265 269 265
209 214 218 225 218 213 218 218 220 229 216 212 193 235 228 240 269 275 267 245 238 247 232 220 217 226 231 229 231 237 244 245 247 256 256 253 253 260 267 270 271 272 272 265
209 220 211 222 213 197 215 214 219 247 260 259 231 246 266 240 305 290 276 256 250 255 230 221 223 230 231 233 235 239 244 250 255 258 255 259 262 263 265 268 273 274 270 265
208 206 202 209 203 206 200 200 197 215 233 234 192 241 253 254 201 90 45 281 256 236 217 214 219 225 230 229 230 235 238 240 247 243 249 258 268 267 271 271 276 275 271 269
207 206 194 202 198 199 205 207 209 230 228 261 257 244 219 228 245 273 303 321 320 286 237 223 219 221 221 229 223 225 229 237 244 248 250 258 261 267 272 278 278 274 269 270
209 218 220 211 211 211 214 220 221 234 221 235 254 256 251 267 260 227 318 291 266 266 255 224 216 217 220 225 224 230 235 240 243 246 250 264 272 270 272 276 278 279 270 273
201 213 217 218 228 233 232 229 232 233 251 245 237 257 224 191 252 267 277 252 253 285 271 230 186 180 186 198 206 209 215 231 241 254 266 272 274 274 275 279 281 276 274 274
215 214 217 225 225 226 226 231 234 241 241 255 241 266 251 263 262 264 280 248 252 257 262 241 216 209 210 211 216 226 241 253 258 258 264 269 275 279 281 281 280 276 276 276
213 221 230 238 243 242 240 238 234 229 237 246 258 261 265 264 256 256 269 263 254 249 256 259 231 224 225 229 232 237 246 258 268 269 276 278 280 279 281 280 278 278 278 279
211 217 222 234 243 243 244 247 246 242 246 250 260 268 267 262 267 263 264 254 254 251 252 253 232 230 233 234 240 248 253 258 263 266 270 273 274 276 279 280 281 281 282 282
219 223 229 239 244 240 243 246 241 239 246 257 263 276 280 272 278 267 257 249 252 256 249 247 242 237 241 243 248 246 247 258 268 273 277 278 280 280 279 279 280 280 281 285
221 222 218 233 227 228 246 243 243 243 248 261 270 272 279 274 267 261 251 248 247 249 256 254 244 238 232 236 246 258 268 276 279 278 277 279 281 281 281 282 283 285 285 286
224 221 213 206 219 245 245 238 242 248 261 268 274 277 266 271 268 258 248 245 245 245 248 238 227 227 238 252 265 275 280 279 278 280 283 284 285 286 287 286 285 286 290 288
223 224 216 214 222 227 247 248 250 257 271 277 285 294 262 268 261 257 249 237 238 237 222 219 230 245 261 273 279 280 278 278 283 288 291 294 294 294 292 290 294 297 298 299
205 216 215 220 233 242 239 242 234 218 267 278 290 288 267 262 256 248 233 231 229 217 219 229 244 258 269 274 275 275 278 284 291 295 295 295 295 296 298 300 300 301 302 302
220 208 212 213 224 240 239 233 224 268 271 276 300 285 262 253 244 230 216 219 218 218 226 239 252 264 269 271 273 278 284 291 295 297 298 298 298 299 300 301 303 303 303 303
240 237 232 228 241 246 250 265 266 262 272 282 292 285 256 241 239 229 219 213 219 227 236 247 258 264 269 273 278 284 289 293 298 299 299 297 297 297 298 300 301 302 304 305
232 241 251 254 248 251 258 262 265 272 280 279 282 279 257 235 231 226 220 221 228 237 246 257 263 268 274 279 283 286 291 297 302 300 295 293 292 293 296 298 300 302 304 306
245 247 241 248 254 254 251 258 268 275 279 282 279 271 255 230 224 225 228 234 239 243 254 258 261 265 271 276 279 285 292 296 294 288 286 287 291 294 296 298 302 305 306 307
238 239 236 238 261 253 259 263 271 276 280 275 273 261 252 237 228 231 237 241 243 247 257 261 262 266 269 273 279 286 291 288 282 281 284 288 291 295 298 301 304 305 307 309
Height
3123 3126 3124 3124 3124 3124 3125 3124 3124 3124 3124 3125 3125 3125 3125 3122 3122 3122 3123 3124 3126 3127 3128 3129 3129 3130 3132 3133 3134 3136 3138 3141 3143 3145 3147 3149 3152 3155 3156 3158 3159 3161 3161 3162
3122 3122 3121 3120 3121 3122 3124 3124 3123 3124 3123 3124 3123 3123 3123 3121 3122 3122 3123 3124 3126 3126 3127 3128 3129 3131 3133 3134 3136 3138 3140 3141 3143 3145 3147 3150 3152 3153 3155 3156 3157 3157 3158 3158
3118 3119 3118 3118 3119 3121 3122 3123 3123 3123 3123 3122 3122 3119 3119 3119 3120 3122 3123 3124 3124 3125 3126 3127 3129 3130 3132 3133 3135 3136 3138 3140 3142 3145 3146 3148 3149 3151 3152 3153 3154 3154 3154 3154
3116 3116 3115 3116 3118 3119 3120 3122 3122 3122 3122 3118 3120 3113 3116 3116 3117 3118 3120 3121 3123 3124 3124 3126 3127 3128 3130 3132 3133 3135 3137 3139 3141 3142 3143 3145 3147 3148 3149 3150 3149 3150 3149 3148
3112 3111 3112 3114 3115 3116 3118 3119 3120 3121 3119 3119 3117 3117 3112 3114 3115 3115 3116 3117 3119 3121 3123 3124 3125 3127 3129 3131 3132 3133 3135 3137 3138 3140 3141 3142 3144 3145 3145 3145 3144 3144 3144 3144
3109 3108 3110 3112 3111 3113 3115 3117 3119 3118 3118 3115 3113 3115 3107 3109 3112 3113 3114 3113 3115 3117 3119 3122 3123 3125 3126 3128 3129 3130 3133 3135 3136 3137 3138 3139 3141 3141 3140 3140 3140 3140 3139 3138
3103 3105 3106 3108 3110 3110 3113 3115 3114 3113 3112 3110 3110 3112 3106 3109 3109 3109 3109 3110 3110 3111 3113 3117 3119 3121 3122 3124 3126 3128 3129 3131 3133 3133 3135 3136 3137 3137 3136 3136 3135 3134 3133 3132
3098 3101 3102 3103 3106 3107 3109 3111 3109 3109 3106 3104 3109 3107 3104 3106 3105 3105 3105 3105 3106 3106 3107 3110 3112 3116 3118 3121 3122 3124 3126 3127 3127 3129 3130 3130 3130 3130 3130 3130 3128 3127 3125 3125
3093 3096 3097 3099 3101 3104 3105 3106 3108 3109 3109 3108 3104 3105 3103 3103 3102 3102 3101 3101 3101 3100 3102 3104 3107 3109 3112 3114 3117 3119 3121 3122 3123 3124 3125 3124 3125 3125 3124 3122 3120 3119 3118 3118
3090 3093 3093 3094 3097 3099 3100 3102 3105 3106 3104 3102 3098 3101 3099 3101 3101 3100 3100 3099 3098 3097 3098 3100 3101 3103 3105 3107 3110 3113 3115 3116 3116 3118 3118 3118 3117 3117 3116 3115 3114 3112 3112 3111
3086 3088 3091 3091 3092 3094 3097 3098 3100 3100 3101 3098 3098 3097 3098 3099 3099 3099 3098 3098 3098 3097 3097 3097 3098 3099 3100 3103 3104 3107 3109 3110 3111 3112 3112 3112 3112 3111 3110 3109 3108 3107 3106 3105
3080 3084 3085 3088 3088 3089 3092 3093 3095 3096 3097 3098 3097 3095 3094 3095 3094 3095 3096 3095 3095 3095 3095 3095 3094 3096 3098 3099 3101 3104 3105 3106 3107 3106 3107 3106 3106 3106 3105 3103 3102 3101 3099 3097
3073 3077 3080 3083 3086 3085 3086 3088 3090 3092 3092 3091 3094 3092 3091 3091 3092 3092 3092 3092 3092 3093 3093 3093 3092 3093 3095 3097 3098 3100 3101 3101 3102 3102 3102 3101 3101 3100 3098 3097 3096 3094 3092 3088
3068 3072 3073 3074 3076 3080 3081 3082 3085 3087 3087 3086 3086 3087 3088 3088 3088 3089 3087 3088 3088 3089 3089 3091 3090 3091 3092 3093 3094 3095 3096 3096 3097 3097 3097 3096 3094 3093 3091 3090 3088 3087 3084 3083
3063 3066 3069 3071 3073 3074 3075 3076 3078 3079 3080 3079 3081 3080 3082 3083 3083 3084 3083 3083 3083 3084 3085 3086 3087 3088 3088 3089 3090 3090 3090 3091 3091 3091 3090 3089 3087 3085 3084 3082 3080 3078 3076 3073
3057 3061 3064 3065 3067 3068 3069 3069 3072 3073 3074 3074 3075 3074 3077 3077 3076 3077 3076 3077 3077 3078 3079 3080 3081 3083 3084 3084 3084 3086 3085 3086 3085 3083 3083 3081 3079 3077 3076 3074 3072 3070 3067 3065
3050 3055 3057 3059 3061 3063 3061 3060 3064 3067 3067 3069 3069 3070 3071 3070 3070 3070 3070 3070 3071 3072 3073 3074 3076 3077 3078 3078 3079 3079 3080 3079 3078 3077 3075 3072 3071 3069 3067 3065 3063 3060 3058 3056
3044 3049 3052 3054 3056 3056 3055 3055 3058 3060 3061 3063 3062 3063 3063 3062 3061 3061 3062 3063 3064 3065 3066 3067 3069 3070 3071 3072 3073 3073 3073 3072 3070 3069 3067 3065 3063 3061 3059 3056 3053 3051 3048 3046
3039 3043 3045 3047 3048 3049 3046 3049 3053 3054 3054 3058 3055 3056 3055 3054 3053 3052 3053 3055 3056 3058 3059 3061 3062 3064 3065 3066 3066 3066 3065 3064 3062 3061 3059 3057 3055 3052 3050 3047 3045 3043 3040 3038
3032 3035 3041 3040 3041 3040 3042 3044 3048 3050 3042 3050 3048 3046 3046 3046 3045 3045 3046 3048 3050 3052 3054 3056 3057 3058 3058 3059 3058 3058 3057 3056 3055 3053 3050 3048 3046 3044 3041 3038 3036 3034 3032 3030
3023 3026 3029 3035 3035 3034 3036 3039 3042 3045 3041 3041 3042 3041 3039 3039 3040 3039 3039 3042 3045 3047 3049 3051 3052 3052 3052 3052 3051 3051 3050 3048 3046 3044 3042 3040 3037 3035 3032 3030 3028 3026 3024 3023
3018 3020 3023 3030 3030 3028 3029 3033 3035 3035 3035 3035 3035 3034 3034 3033 3034 3034 3035 3037 3040 3042 3043 3044 3045 3045 3045 3045 3044 3043 3041 3039 3038 3035 3033 3031 3028 3026 3025 3023 3021 3019 3017 3015
3015 3015 3018 3019 3018 3022 3023 3026 3027 3029 3029 3029 3028 3027 3027 3028 3029 3030 3031 3033 3036 3037 3038 3038 3039 3038 3038 3037 3036 3034 3033 3032 3030 3028 3024 3022 3020 3019 3017 3016 3014 3012 3009 3006
3007 3009 3009 3012 3013 3017 3019 3020 3021 3023 3023 3023 3022 3021 3021 3022 3024 3025 3027 3029 3030 3032 3032 3032 3032 3031 3030 3029 3028 3027 3025 3023 3021 3018 3016 3015 3013 3011 3010 3007 3005 3003 3001 2998
3000 3001 3002 3003 3007 3010 3012 3013 3015 3015 3016 3016 3015 3015 3015 3016 3018 3020 3022 3024 3025 3025 3025 3025 3024 3023 3022 3021 3020 3018 3016 3014 3012 3011 3010 3008 3006 3004 3001 2999 2996 2993 2991 2988
2989 2991 2994 2992 3001 3003 3007 3008 3008 3008 3008 3009 3008 3008 3009 3010 3011 3014 3016 3017 3018 3017 3017 3017 3017 3015 3014 3012 3010 3009 3007 3006 3005 3003 3001 3000 2999 2997 2994 2992 2988 2987 2982 2977